SCP
2 2 2 2 1 1 1 1 1 1 1 1 0 0 0 0 0 0 0 0 0 0 0 0 0 0 0 0 0 0 0 0 0 0 0 0 0 0 0 0 0 0 0
2 2 2 2 1 1 1 1 1 1 1 1 0 0 0 0 0 0 0 0 0 0 0 0 0 0 0 0 0 0 0 0 0 0 0 0 0 0 0 0 0 0 0
2 2 2 2 1 1 1 1 1 1 1 1 0 0 0 0 0 0 0 0 0 0 0 0 0 0 0 0 0 0 0 0 0 0 0 0 0 0 0 0 0 0 0
2 2 2 1 1 1 1 1 1 1 0 0 0 0 0 0 0 0 0 0 0 0 0 0 0 0 0 0 0 0 0 0 0 0 0 0 0 0 0 0 0 0 0
2 2 1 1 1 1 1 1 1 1 0 0 0 0 0 0 0 0 0 0 0 0 0 0 0 0 0 0 0 0 0 0 0 0 0 0 0 0 0 0 0 0 0
1 1 1 1 1 1 1 1 1 0 0 0 0 0 0 0 0 0 0 0 0 0 0 0 0 0 0 0 0 0 0 0 0 0 0 0 0 0 0 0 0 0 0
1 1 1 1 1 1 1 1 1 0 0 0 0 0 0 0 0 0 0 0 0 0 0 0 0 0 0 0 0 0 0 0 0 0 0 0 0 0 0 0 0 0 0
1 1 1 1 1 1 1 1 1 0 0 0 0 0 0 0 0 0 0 0 0 0 0 0 0 0 0 0 0 0 0 0 0 0 0 0 0 0 0 0 0 0 0
1 1 1 1 1 1 1 1 0 0 0 0 0 0 0 0 0 0 0 0 0 0 0 0 0 0 0 0 0 0 0 0 0 0 0 0 0 0 0 0 0 0 0
1 1 1 1 1 1 1 1 0 0 0 0 0 0 0 0 0 0 0 0 0 0 0 0 0 0 0 0 0 0 0 0 0 0 0 0 0 0 0 0 0 0 0
1 0 0 0 0 0 0 0 0 0 0 0 0 0 0 0 0 0 0 0 0 0 0 0 0 0 0 0 0 0 0 0 0 0 0 0 0 0 0 0 0 0 0
0 0 0 0 0 0 0 0 0 0 0 0 0 0 0 0 0 0 0 0 0 0 0 0 0 0 0 0 0 0 0 0 0 0 0 0 0 0 0 0 0 0 0
0 0 0 0 0 0 0 0 0 0 0 0 0 0 0 0 0 0 0 0 0 0 0 0 0 0 0 0 0 0 0 0 0 0 0 0 0 0 0 0 0 0 0
1 1 0 0 0 0 0 0 0 0 0 0 0 0 0 0 0 0 0 0 0 0 0 0 0 0 0 0 0 0 0 0 0 0 0 0 0 0 0 0 0 0 0
1 1 1 0 0 0 0 0 0 0 0 0 0 0 0 0 0 0 0 0 0 0 0 0 0 0 0 0 0 0 0 0 0 0 0 0 0 0 0 0 0 0 0
1 1 1 1 0 0 0 0 0 0 0 0 0 0 0 0 0 0 0 0 0 0 0 0 0 0 0 0 0 0 0 0 0 0 0 0 0 0 0 0 0 0 0
1 1 1 0 0 0 0 0 0 0 0 0 0 0 0 0 0 0 0 0 0 0 0 0 0 0 0 0 0 0 0 0 0 0 0 0 0 0 0 0 0 0 0
1 1 0 0 0 0 0 0 0 0 0 0 0 0 0 0 0 0 0 0 0 0 0 0 0 0 0 0 0 0 0 0 0 0 0 0 0 0 0 0 0 0 0
0 0 0 0 0 0 0 0 0 0 0 0 0 0 0 0 0 0 0 0 0 0 0 0 0 0 0 0 0 0 0 0 0 0 0 0 0 0 0 0 0 0 0
0 0 0 0 0 0 0 0 0 0 0 0 0 0 0 0 0 0 0 0 0 0 0 0 0 0 0 0 0 0 0 0 0 0 0 0 0 0 0 0 0 0 0
0 0 0 0 0 -1 -1 -1 0 0 0 0 0 0 0 0 0 0 0 0 0 0 0 0 0 0 0 0 0 0 0 0 0 0 0 0 0 0 0 0 0 0 0
0 0 0 0 0 -1 -3 -1 0 0 0 0 0 0 0 0 0 0 0 0 0 0 0 0 0 0 0 0 0 0 0 0 0 0 0 0 0 0 0 0 0 0 0
0 0 0 0 0 -1 -1 -1 0 0 0 0 0 0 0 0 0 0 0 0 0 0 0 0 0 0 0 0 0 0 0 0 0 0 0 0 0 0 0 0 0 0 0
0 0 0 0 0 0 0 0 0 0 0 0 0 0 0 0 0 0 0 0 0 0 0 0 0 0 0 0 0 0 0 0 0 0 0 0 0 0 0 0 0 0 0
0 0 0 0 0 0 0 0 0 0 0 0 0 0 0 0 0 0 0 0 0 0 0 0 0 0 0 0 0 0 0 0 0 0 0 0 0 0 0 0 0 0 0
0 0 0 0 0 0 0 0 0 0 0 0 0 0 0 0 0 0 0 0 0 0 0 0 0 0 0 0 0 0 0 0 0 0 0 0 0 0 0 0 0 0 0
Wind_Speed
7 9 10 10 9 8 9 10 10 9 7 5 4 4 3 3 3 3 5 6 6 6 5 4 4 4 4 4 4 3 2 1 2 2 1 2 1 2 3 3 4 5 6
6 8 9 10 10 10 9 9 10 9 8 5 4 3 3 3 3 3 4 5 5 6 6 5 4 4 4 4 3 3 2 1 2 3 2 1 3 2 2 3 4 4 3
11 10 9 9 10 10 11 10 10 9 8 7 4 3 2 2 2 2 3 4 5 5 5 6 5 4 4 4 4 4 4 2 1 2 4 3 3 2 2 2 2 3 4
9 9 9 9 10 10 9 9 9 9 8 7 7 7 5 4 5 4 4 4 5 5 5 6 6 5 4 4 4 4 3 4 2 1 1 3 4 3 1 2 1 2 3
10 10 10 10 9 9 9 9 9 8 7 7 8 7 5 4 3 3 4 4 3 4 5 5 5 5 4 4 4 4 4 3 3 2 2 1 1 2 3 1 2 1 1
9 8 7 7 6 7 8 8 8 8 8 7 7 7 7 5 5 5 5 4 3 3 4 4 5 5 4 5 5 5 5 4 4 3 2 3 2 2 3 2 2 1 1
8 7 7 7 7 8 8 7 8 7 7 7 7 7 7 7 7 6 6 5 3 3 4 4 4 4 4 5 4 4 4 4 4 4 3 2 2 3 3 3 2 1 1
6 7 7 7 7 8 8 8 8 7 7 7 6 6 6 5 4 5 5 5 4 4 5 4 4 4 5 5 4 3 4 3 3 4 3 2 2 2 3 3 3 1 1
6 7 6 6 6 7 7 8 8 7 6 6 5 5 6 6 6 5 5 4 4 4 5 5 5 5 5 5 4 3 4 3 3 3 3 2 2 2 2 2 3 4 2
7 6 5 5 5 5 5 6 7 6 6 6 5 4 5 5 5 5 5 5 4 4 5 5 5 5 4 4 4 3 3 3 3 3 3 2 1 1 1 2 2 3 4
7 7 5 5 5 5 5 5 6 5 4 5 4 4 3 3 4 4 4 4 4 4 4 5 4 5 5 4 4 3 3 4 3 2 3 2 2 2 1 2 2 2 3
7 7 6 5 5 5 5 5 5 5 4 4 4 4 3 3 3 3 4 4 4 4 4 4 4 4 4 4 4 4 3 3 3 2 3 2 2 3 2 2 3 3 3
5 5 5 5 5 5 5 5 5 5 4 4 4 3 3 3 3 3 3 4 4 3 3 4 4 4 4 4 4 4 4 3 3 3 4 3 4 4 3 4 4 3 4
6 6 6 5 5 5 5 5 5 5 5 5 4 3 3 3 3 3 3 3 4 4 4 4 4 4 4 5 5 5 6 5 5 5 5 4 5 5 5 5 4 5 6
7 7 7 6 6 5 5 5 5 5 5 5 5 4 4 4 3 3 3 4 4 4 4 4 4 4 4 4 6 6 7 7 7 7 6 7 10 10 7 6 5 6 6
8 8 8 7 7 7 6 6 5 5 5 5 5 4 5 5 4 4 4 5 5 5 5 5 5 5 4 6 9 9 8 8 8 8 7 8 10 14 15 15 13 10 8
8 8 7 7 6 6 7 7 6 5 6 6 5 5 5 5 5 5 5 5 5 5 6 5 6 6 6 9 11 12 9 8 7 7 7 7 8 9 9 15 17 16 15
8 7 7 6 5 5 5 6 6 6 6 6 6 6 6 6 6 6 5 5 5 5 5 6 6 7 8 11 13 14 10 9 8 7 7 8 7 8 10 11 11 10 9
9 7 6 7 6 6 6 7 6 6 6 5 5 5 6 7 6 6 5 5 6 6 6 6 7 8 8 10 12 12 9 9 9 7 7 8 8 12 14 12 11 10 8
7 8 7 7 6 5 6 8 7 6 5 5 5 5 6 7 7 6 6 6 7 7 7 7 7 7 7 9 11 11 8 9 8 7 8 10 10 10 11 9 9 10 6
9 9 8 7 5 5 7 7 6 5 5 5 5 5 5 6 7 7 6 7 8 8 8 8 7 7 8 9 10 10 7 8 8 7 6 6 11 11 10 8 7 8 7
9 9 8 6 4 5 7 6 5 4 5 6 6 5 5 6 6 8 7 8 8 9 8 8 7 6 6 8 10 12 11 9 9 7 5 7 12 12 11 8 9 11 9
8 7 8 6 4 3 5 6 4 5 6 7 6 5 6 6 6 7 8 7 7 7 6 6 7 6 5 7 12 13 14 13 8 7 10 11 13 11 9 11 11 8 6
7 7 7 7 5 3 4 4 5 5 7 7 6 6 6 7 6 5 5 6 6 7 7 7 7 6 5 5 5 7 8 11 9 8 10 12 12 9 8 8 6 4 4
5 6 6 6 5 4 4 4 5 7 8 7 7 6 7 7 7 6 5 4 4 5 7 6 7 8 7 5 8 8 6 5 6 7 5 5 4 5 5 4 4 4 4
6 6 5 5 5 5 4 3 4 6 8 8 7 6 6 6 7 8 8 13 10 11 11 10 9 7 9 11 11 10 10 10 10 8 6 5 4 5 4 4 3 3 3
Wind_Direction
161 152 151 153 154 157 157 157 157 159 153 149 153 152 159 161 163 172 171 173 168 163 159 161 165 161 162 172 163 148 148 153 133 92 20 345 307 226 208 201 194 202 202
150 154 153 156 163 167 165 160 162 164 165 165 158 153 149 163 164 168 177 177 172 172 172 163 169 167 159 163 162 147 139 165 142 133 107 2 338 316 236 210 200 203 194
164 167 164 164 165 170 170 167 167 168 169 162 141 130 109 98 135 168 185 189 179 178 174 170 172 171 164 169 174 163 153 170 198 152 147 154 219 280 310 254 217 196 192
167 171 169 170 172 173 169 163 165 166 166 161 160 166 170 178 190 182 188 191 184 176 174 173 174 176 171 172 181 171 162 156 177 199 184 169 163 159 277 317 276 216 207
170 173 176 174 171 167 165 165 165 167 167 168 171 175 177 185 176 172 180 187 186 186 180 176 174 177 179 183 181 170 169 162 168 178 173 140 131 139 146 237 299 317 259
165 168 165 156 160 161 163 165 167 172 173 173 174 177 179 177 172 176 179 178 178 194 199 184 182 182 183 187 187 180 175 175 168 169 165 162 159 175 159 180 223 246 285
157 160 159 162 163 164 167 167 168 175 177 176 179 183 185 180 180 181 182 177 180 194 208 198 188 187 187 189 182 178 178 177 173 178 178 174 184 171 159 155 179 202 277
153 158 163 162 162 166 168 167 171 175 178 181 187 189 187 184 186 187 183 186 189 194 197 194 191 190 190 193 178 179 187 180 182 191 180 171 193 171 164 161 151 132 354
148 148 149 148 152 156 164 168 166 169 173 180 184 185 183 182 184 185 184 185 187 191 194 192 193 195 190 184 173 179 186 174 182 187 183 180 198 177 171 161 155 151 161
142 144 146 148 149 155 156 155 159 165 171 174 178 182 183 181 178 173 182 185 186 185 182 193 194 189 182 174 169 166 171 165 186 183 168 180 189 163 153 155 155 156 155
150 150 152 156 146 137 141 146 150 150 157 163 165 162 164 168 164 167 177 180 179 175 179 186 184 180 175 165 162 167 159 166 184 180 160 169 144 123 107 107 112 120 128
152 151 152 147 134 131 139 143 145 144 149 147 142 145 143 143 152 163 172 168 168 169 169 163 159 162 155 156 157 163 162 158 162 160 136 134 123 105 102 99 94 103 115
136 138 137 141 145 143 142 142 140 140 140 135 131 135 135 137 144 154 156 152 154 152 146 145 152 149 145 139 139 141 133 126 130 131 121 114 110 97 90 91 90 91 94
155 152 146 144 150 152 149 147 144 147 146 140 136 142 146 144 144 141 141 142 143 142 137 134 137 132 128 130 130 124 118 109 97 97 101 101 104 107 101 91 93 99 96
161 158 153 147 144 144 145 144 141 141 140 136 137 146 140 133 125 121 117 113 116 121 118 117 118 119 126 135 132 124 117 109 97 86 83 86 90 91 93 97 98 102 100
163 156 150 148 152 155 152 147 143 142 135 133 136 131 122 119 115 109 103 98 96 98 99 102 108 106 110 121 126 124 116 112 108 99 87 81 80 84 83 85 86 94 107
154 151 152 153 155 155 152 152 149 139 132 132 132 130 125 118 113 113 104 102 97 94 93 92 94 95 99 111 115 115 114 111 109 107 102 94 88 86 89 81 76 73 79
141 144 149 146 145 141 136 136 135 136 133 131 134 133 127 123 117 112 110 105 100 98 95 93 95 94 95 105 108 107 101 98 95 96 102 105 99 97 100 94 83 74 69
145 146 148 137 133 134 131 121 119 122 123 128 136 138 137 133 128 124 121 114 108 99 94 96 97 97 94 101 108 110 106 99 91 86 88 98 99 102 103 101 97 89 77
129 128 123 116 124 134 126 120 123 121 125 131 133 133 135 133 130 128 121 112 106 103 100 92 90 97 96 98 108 113 113 109 102 89 83 85 94 100 102 106 109 104 96
119 116 114 115 122 126 123 124 127 132 134 124 116 115 123 127 128 123 116 113 109 104 98 92 84 85 92 96 97 105 113 118 112 103 92 86 91 91 93 99 105 113 112
111 112 112 111 110 117 123 124 128 129 122 117 112 110 115 122 125 122 118 117 117 111 106 100 91 78 82 91 95 95 100 109 110 108 103 98 93 88 88 89 92 95 94
109 108 111 107 96 103 124 133 135 129 124 120 119 116 113 110 117 124 127 124 122 120 119 115 108 97 88 89 92 95 98 99 100 104 108 101 93 87 82 82 86 87 88
112 110 110 109 101 91 94 119 128 129 127 126 124 120 117 110 103 104 115 125 131 132 129 127 123 118 110 108 106 104 102 100 100 101 97 91 87 85 86 80 74 73 90
109 111 113 118 117 109 106 110 127 130 126 124 122 118 115 113 103 88 77 98 96 133 137 138 137 137 133 133 127 124 119 120 120 114 97 89 87 82 77 71 68 70 76
109 108 108 116 120 117 111 107 126 134 133 130 126 123 121 117 114 109 87 63 78 88 97 110 120 113 122 126 121 118 119 119 121 111 111 110 106 106 106 100 87 76 81